www.pogodaiklimat.ru

Погода и климат >> Архив погоды >> Индия >> Пенджаб >> Лудхиана


ПОГОДА в Лудхиане

  • Прогноз погоды в Лудхиане
  • Монитор погоды в Лудхиане

АРХИВ ПОГОДЫ в Лудхиане

Время (UTC), дата Ветер
(напр.,м/с)
 
Видим.   Явления Облачность Т
(С)
Тd
(С)
f
(%)
Тe
(С)
Тes
(С)
Комфортность P
(гПа)
Po
(гПа)
Тmin
(С)
Tmax
(С)
R
(мм)
R24
(мм)
S
(см)
21 16.02 0 {гроза} н/о
00 17.02 0 {гроза} н/о
03 17.02 З 2 н/о +13.2 +10.5 84 +13 +15 1015.8 985.4 +10.9 +20.1
06 17.02 З 3 н/о +16.2 +7.4 56 +16 +18 1016.9 986.7
09 17.02 СЗ 3 н/о +18.4 +7.9 50 +19 +21 1012.9 983.1
12 17.02 З 2 н/о +17.4 +8.0 54 +18 +18 1011.6 981.7 +19.6
15 17.02 0 {гроза} н/о
18 17.02 0 {гроза} н/о
21 17.02 0 н/о
00 18.02 0 н/о
03 18.02 штиль 0 500 м в посл. час дождь 10/8 750 м
[Sc As op]
+11.6 +10.8 95 +11 +11 1011.8 981.3 +8.4 +19.6 0.0
06 18.02 В 2 {дождь} н/о +14.2 +13.8 97 +14 +14 1012.2 982.0 0.1
09 18.02 Ю 1 {дождь} н/о +16.2 +11.4 73 +17 +18 1009.2 979.3 0.1
12 18.02 С 3 {дождь} н/о +15.4 +13.3 87 +15 +15 1007.5 977.5 +16.6 1
15 18.02 0 н/о
18 18.02 0 н/о
21 18.02 0 н/о
00 19.02 0 н/о
03 19.02 В 2 н/о +12.8 +11.7 93 +12 +14 1013.2 982.8 +9.8 +16.6 3
06 19.02 Ю 3 н/о +19.8 +11.9 60 +22 +29 комфорт 1014.9 985.2
09 19.02 ЮВ 2 н/о +20.4 +11.4 56 +23 +27 комфорт 1014.2 984.5
12 19.02 В 1 н/о +19.8 +12.7 64 +23 +23 комфорт 1014.6 984.9 +22.1
15 19.02 0 н/о
18 19.02 0 н/о
21 19.02 0 н/о
00 20.02 0 н/о
03 20.02 Ю 1 {дождь} н/о +14.0 +12.2 89 +14 +14 1018.8 988.3 +12.9 +22.1 0.0
06 20.02 Ю 3 н/о +19.0 +11.4 61 +20 +21 1018.5 988.6
09 20.02 Ю 3 н/о +20.4 +14.6 69 +23 +24 комфорт 1016.2 986.5 0.0
12 20.02 В 4 {дождь} н/о +17.8 +14.0 78 +18 +18 1015.8 985.8 +21.0 0.0
15 20.02 0 н/о
18 20.02 0 {метель} н/о
21 20.02 0 {туман} н/о
00 21.02 0 н/о
03 21.02 В 2 {гроза, дождь} н/о +15.4 +12.5 83 +15 +16 1016.4 986.2 +13.9 +21.0 5
06 21.02 штиль 0 {дождь} н/о +19.6 +14.5 72 +21 +22 комфорт 1017.4 987.6 0.0
09 21.02 Ю 4 н/о +24.4 +15.9 59 +28 +29 душно 1014.4 985.1 0.0
12 21.02 Ю 2 н/о +23.0 +16.1 65 +25.1 0.0
15 21.02 0 н/о
18 21.02 0 {гроза} н/о
21 21.02 0 {ливн. осадки} н/о
00 22.02 0 {ливн. осадки} н/о
03 22.02 СЗ 2 {туман} н/о +13.6 +13.4 99 +13 +13 1019.2 988.7 +13.1 +25.1 0.0
06 22.02 СЗ 2 {туман} н/о +16.6 +13.0 79 +17 +24 1019.6 989.4
09 22.02 З 3 н/о +20.0 +10.4 54 +22 +26 комфорт 1017.3 987.5
12 22.02 З 3 н/о +19.0 +8.2 49 +20 +20 1016.5 986.6 +21.0
15 22.02 0 {гроза} н/о
18 22.02 0 н/о
21 22.02 0 н/о
00 23.02 0 {гроза} н/о
03 23.02 З 2 н/о +12.2 +9.0 81 +12 +15 1017.4 986.8 +9.3 +21.0
06 23.02 З 4 н/о +19.0 +6.7 45 +20 +28 1016.7 986.8
09 23.02 З 3 н/о +21.0 +3.5 32 +22 +28 комфорт 1014.0 984.4
12 23.02 З 2 н/о +19.4 +5.6 40 +20 +21 1013.7 983.9 +21.5
15 23.02 0 {ливн. осадки} н/о
18 23.02 0 н/о

 

Местоположение метеостанции Лудхиана (Пенджаб, Индия): широта 30.87 долгота 75.93 высота над уровнем моря 255 м.

В архиве по умолчанию представлена погода в Лудхиане за последнюю неделю. Архивные данные за месяц целиком и за предыдущие месяцы, начиная с января 2011 года, Вы можете получить, выбрав интересующий диапазон дат из раскрывающегося списка и нажав кнопку "Ввод!".


*Определитесь, кто Вы:
робот инопланетянин человек

Внимание! Время в таблицах - всемирное. Для получения местного времени необходимо прибавить поправку, которая равна 5.5 ч.

Смотрите также архив погоды в соседних городах и на ближайших метеорологических станциях:

Погода в Уне (Химачал-Прадеш, Индия) (74 км)
Погода в Патиале (Пенджаб, Индия) (79 км)
Погода в Чандигархе (Чандигарх, Индия) (85 км)
Погода в Амбале (Харьяна, Индия) (96 км)
Погода в Сундернагаре (Химачал-Прадеш, Индия) (118 км)
Погода в Шимле (Химачал-Прадеш, Индия) (121 км)
Погода в Амритсаре (Пенджаб, Индия) (132 км)
Погода в Кангре (Химачал-Прадеш, Индия) (141 км)
Погода в Бантаре (Химачал-Прадеш, Индия) (159 км)
Погода в Дармсале (Химачал-Прадеш, Индия) (161 км)

Пояснения к столбцам:

Ветер - указаны скорость ветра в м/с - средняя за 10 мин, порывы в срок и между сроками (в фигурных скобках) и направление, откуда дует ветер: С - северный, СВ - северо-восточный, В - восточный, ЮВ - юго-восточный, Ю - южный, ЮЗ - юго-западный, З - западный, СЗ - северо-западный.
Видимость - горизонтальная дальность видимости в метрах или километрах. При видимости от 1 до 10 км при отсутствии осадков обычно наблюдается дымка, при ухудшении видимости до 1 км и менее - туман. В сухую погоду видимость может ухудшаться дымом, пылью или мглою.
Явления - указаны атмосферные явления, наблюдавшиеся в срок или в последний час перед сроком; фигурными скобками обозначены явления, наблюдавшиеся между сроками (за 1-3 часа до срока); квадратными скобками обозначены град или гололедные отложения с указанием их диаметра в мм.
Облачность - указаны через наклонную черту общая и нижняя облачность в баллах и высота нижней границы облаков в метрах; квадратными скобками обозначены формы облаков: Ci - перистые, Cs - перисто-слоистые, Cc - перисто-кучевые, Ac - высококучевые, As - высокослоистые, Sc - слоисто-кучевые, Ns - слоисто-дождевые, Cu - кучевые, Cb - кучево-дождевые. Подробнее классификацию облаков см. в Атласе облаков (PDF).
T - Температура воздуха - температура, измеренная на высоте 2 м над землей.
Td - Температура точки росы - температура, при понижении до которой содержащийся в воздухе водяной пар достигнет насыщения.
f - Относительная влажность воздуха - влажноcть воздуха, измеренная на высоте 2 м над землей.
Te - Эффективная температура - температура, которую ощущает одетый по сезону человек в тени. Характеристика душности погоды. При расчете учитывается влияние влажности воздуха и скорости ветра на теплоощущения человека.
Tes - Эффективная температура на солнце - температура, которую ощущает человек, с поправкой на солнечный нагрев. Характеристика знойности погоды. Зависит от высоты солнца над горизонтом, облачности и скорости ветра. Ночью, в пасмурную погоду, а также при ветре 12 м/с и более поправка равна нулю.
P - Атмосферное давление - приведенное к уровню моря атмосферное давление.
Po - Атмосферное давление - измеренное на уровне метеостанции атмосферное давление.
Tmin - Минимальная температура - минимум температуры воздуха на высоте 2 м над землей.
Tmax - Максимальная температура - максимум температуры воздуха на высоте 2 м над землей.
R - Количество осадков - Количество выпавших осадков за период времени, мм. При наведении курсора мыши на число - период времени, за который выпало указанное количество осадков.
R24 - Количество осадков - Количество выпавших осадков за 24 часа, мм.
S - Снежный покров - Высота снежного покрова, см. При наведении курсора мыши на число - состояние снежного покрова и степень покрытия местности в баллах.